OpenBCM V1.08-5-g2f4a (Linux)

Packet Radio Mailbox

IZ3LSV

[San Dona' di P. JN]

 Login: GUEST





  
I0OJJ  > KEPS     20.08.25 02:45l 316 Lines 15020 Bytes #153 (0) @ AMSAT
BID : ORB25232.1
Read: GUEST
Subj: 2Line Orbital Elements 25232.AMSAT
Path: IZ3LSV<IK6IHL<IK7NXU<HB9ON<DK0WUE<PD0LPM<IR0AAB<I0OJJ
Sent: 250820/0025z @:I0OJJ.ITA.EU [Rome] obcm1.08-10-g596e
From: I0OJJ @ I0OJJ.ITA.EU (Gustavo)
To:   KEPS @ AMSAT
X-Info: This message was generated automatically


QST de KM1P

AMSAT Orbital Elements for Amateur Satellites in TLE Format
From Orbital Analysis Auxilliary Summer Office
New England Sci-Tech STEM Education Center
Narragansett RI August 20, 2025
To all radio amateurs


These element sets describe the orbits of various satellites 
in use by the amateur radio community. For details see:
www.amsat.org/keplerian-elements-formats/

A daily update of element sets is available at:
www.amsat.org/tle/daily-bulletin.txt
or without bulletin text:
www.amsat.org/tle/dailytle.txt


AO-07
1 07530U 74089B   25231.59781618 -.00000029  00000-0  10922-3 0  9990
2 07530 101.9966 236.6236 0012183 348.6368 123.8962 12.53690851322963
UO-11
1 14781U 84021B   25231.47523312  .00001226  00000-0  13414-3 0  9993
2 14781  97.7608 196.4718 0009379 100.3250 259.9025 14.89564264212191
AO-27
1 22825U 93061C   25231.68651135  .00000068  00000-0  43105-4 0  9997
2 22825  98.7315 293.5788 0007283 263.5716  96.4637 14.30818837664156
FO-29
1 24278U 96046B   25231.65683686 -.00000044  00000-0 -10194-4 0  9998
2 24278  98.5645 116.1679 0350260 158.2886 203.3526 13.53251740432637
NOAA-15
1 25338U 98030A   25231.77009435  .00000153  00000-0  80310-4 0  9994
2 25338  98.5336 255.1809 0010950 145.7140 214.4750 14.27013376418554
GO-32
1 25397U 98043D   25231.50210020  .00000067  00000-0  49026-4 0  9991
2 25397  98.9770 212.1226 0001807  42.3430 317.7888 14.24330331408385
ISS
1 25544U 98067A   25231.82375510  .00013282  00000-0  23998-3 0  9994
2 25544  51.6354 351.6574 0003397 242.2486 117.8158 15.50035894525033
NO-44
1 26931U 01043C   25231.61896485  .00000109  00000-0  71997-4 0  9996
2 26931  67.0516 304.1640 0006763 276.1654  83.8677 14.31764096247439
SO-50
1 27607U 02058C   25231.69043925  .00000972  00000-0  13731-3 0  9994
2 27607  64.5545 341.0006 0063823 318.8308  40.7991 14.81795574219979
CO-55
1 27844U 03031E   25231.57568823  .00000282  00000-0  14188-3 0  9996
2 27844  98.6780 238.9388 0009307 349.0839  11.0136 14.24043469148744
CO-57
1 27848U 03031J   25231.48712805  .00000239  00000-0  12476-3 0  9991
2 27848  98.6809 238.8033 0009648   6.8813 353.2497 14.23371521148455
RS-22
1 27939U 03042A   25231.82821851  .00001065  00000-0  17597-3 0  9991
2 27939  98.3344  43.0323 0012182 139.7260 324.3386 14.72502217171313
CO-58
1 28895U 05043F   25231.39138988  .00001443  00000-0  24196-3 0  9993
2 28895  98.2590  16.6711 0015661  83.6413 276.6576 14.71224308 57354
CO-65
1 32785U 08021C   25231.89208556  .00004681  00000-0  33361-3 0  9990
2 32785  97.7898 203.6359 0008798 342.2214  17.8703 15.05054257939879
CO-66
1 32791U 08021J   25231.49889898  .00011764  00000-0  54541-3 0  9990
2 32791  97.7325 213.2158 0001217 292.7635  67.3470 15.20232100941269
RS-30
1 32953U 08025A   25231.86729254  .00000035  00000-0  17968-3 0  9995
2 32953  82.5055 182.8497 0017889 249.7917 110.1239 12.43167411782385
NOAA-19
1 33591U 09005A   25231.77379492  .00000073  00000-0  62954-4 0  9996
2 33591  98.9925 296.8622 0014233 158.8846 201.2916 14.13397236852165
SRMSAT
1 37841U 11058D   25230.93296251  .00000393  00000-0  69650-4 0  9992
2 37841  19.9721  88.8040 0011805 119.0018 269.1224 14.11453884715285
ZACUBE-1
1 39417U 13066B   25231.44165943  .00003903  00000-0  33605-3 0  9994
2 39417  97.7857 188.1253 0043838 172.3166 187.8737 14.97211920635516
Delfi-N3xt
1 39428U 13066N   25231.33564042  .00005041  00000-0  50543-3 0  9992
2 39428  97.8299 148.2177 0085095 126.5863 234.3223 14.89090942629608
GOMX-1
1 39430U 13066Q   25231.79410140  .00001459  00000-0  23222-3 0  9997
2 39430  97.6766  86.0731 0131171 325.0644  34.2005 14.67886830625856
LO-74
1 39440U 13066AA  25231.85470126  .00003881  00000-0  39079-3 0  9993
2 39440  97.8517 175.9531 0059933 305.8550  53.7109 14.90435191633256
AO-73
1 39444U 13066AE  25231.46212599  .00005305  00000-0  39008-3 0  9997
2 39444  97.7843 193.7054 0042310 145.1671 215.2336 15.03120418634233
DTUSAT-2
1 40030U 14033W   25231.52474342  .00005766  00000-0  36789-3 0  9992
2 40030  98.0611 206.8380 0009457 167.4529 192.6936 15.09085355607099
EO-80
1 40032U 14033Y   25231.47511322  .00006727  00000-0  42745-3 0  9995
2 40032  98.0489 206.3415 0010254 116.4816 243.7464 15.09159957607069
LILACSAT-2
1 40908U 15049K   25231.77670932  .00012217  00000-0  30397-3 0  9992
2 40908  97.5048 253.9074 0006944 259.5021 100.5442 15.40404516549186
IO-86
1 40931U 15052B   25151.18580175  .00001241  00000-0  78118-4 0  9996
2 40931   6.0006  24.0987 0012733 338.8432  21.1169 14.78805930523159
Horyu-4
1 41340U 16012D   25231.46405359  .00023257  00000-0  56480-3 0  9996
2 41340  30.9970  14.2752 0007431  77.6074 282.5404 15.39744461523716
Lapan A3
1 41603U 16040E   25231.85084249  .00003492  00000-0  12141-3 0  9998
2 41603  97.1400 233.6893 0011455  25.0536 335.1258 15.30301581508689
CAS-2T
1 41847U 16066G   25231.24177533  .00000572  00000-0  91230-4 0  9991
2 41847  98.4163 305.0793 0344788 324.8760  33.0126 14.43658017461216
CAS-4B
1 42759U 17034B   25231.55004456  .00102492  00000-0  67627-3 0  9993
2 42759  43.0023 255.8459 0020701  68.9676 291.3404 15.74260050453747
CAS-4A
1 42761U 17034D   25231.50858795  .00125386  00000-0  74701-3 0  9992
2 42761  43.0056 252.2329 0021481  74.1470 286.1766 15.76478360453762
TechnoSat
1 42829U 17042E   25231.53238772  .00003073  00000-0  23719-3 0  9997
2 42829  97.3987  36.8710 0018242  44.7250 315.5443 15.02138060441374
AO-91
1 43017U 17073E   25231.58874467  .00007208  00000-0  36439-3 0  9990
2 43017  97.5147 100.5761 0168053 284.6332  73.6315 15.05824047419893
S-Net D
1 43186U 18014G   25231.70268120  .00004089  00000-0  23897-3 0  9998
2 43186  97.5540 133.8825 0008514 353.0443   7.0668 15.12426775413122
S-Net B
1 43187U 18014H   25231.70901310  .00004123  00000-0  24102-3 0  9993
2 43187  97.5546 133.8643 0009022 347.3321  12.7681 15.12407916413127
S-Net A
1 43188U 18014J   25231.70281766  .00004173  00000-0  24374-3 0  9996
2 43188  97.5553 134.0176 0008932 348.1244  11.9774 15.12432878413121
S-Net C
1 43189U 18014K   25231.57926553  .00004058  00000-0  23726-3 0  9994
2 43189  97.5569 133.9217 0010179 339.2830  20.7986 15.12403404411653
Ten-Koh
1 43677U 18084G   25231.47269565  .00001974  00000-0  16026-3 0  9994
2 43677  98.0835  46.5363 0007789  40.3954 319.7846 15.00862097370876
PO-101
1 43678U 18084H   25231.83877220  .00002276  00000-0  19500-3 0  9994
2 43678  98.1066  50.7100 0009066  59.3719 300.8395 14.98605804371057
QO-100
1 43700U 18090A   25231.53956670  .00000128  00000-0  00000-0 0  9997
2 43700   0.0227 227.2445 0001013 309.4500  11.4828  1.00272407 24653
MinXSS-2
1 43758U 18099A   25231.70801447  .00014717  00000-0  54545-3 0  9994
2 43758  97.4971 298.0494 0010026 261.5600  98.4502 15.27686281367821
AO-95
1 43770U 18099N   25231.12599678  .00008047  00000-0  39464-3 0  9996
2 43770  97.4865 288.4617 0009280 333.5982  26.4778 15.18346131367250
SNUSat 2
1 43782U 18099AA  25231.21030857  .00005802  00000-0  30951-3 0  9996
2 43782  97.4552 284.7114 0010167 267.3320  92.6749 15.15499147367192
SnugLite
1 43784U 18099AC  25231.66778889  .00007810  00000-0  37969-3 0  9998
2 43784  97.4363 284.8742 0001832 252.6693 107.4341 15.18690492367429
ITASat 1
1 43786U 18099AE  25231.56126184  .00005908  00000-0  33101-3 0  9994
2 43786  97.4518 284.3509 0012858 325.6650  34.3749 15.13711018367190
EAGLET 1
1 43790U 18099AJ  25231.68768906  .00003941  00000-0  24901-3 0  9999
2 43790  97.4716 284.1860 0010549 309.8466  50.1834 15.09573228366797
ESEO
1 43792U 18099AL  25231.58395370  .00001308  00000-0  10190-3 0  9991
2 43792  97.4439 276.3863 0009786 282.5543  77.4588 15.02847534366482
JO-97
1 43803U 18099AX  25231.61197053  .00009675  00000-0  42343-3 0  9996
2 43803  97.4616 290.0990 0005946 248.8839 111.1762 15.22239860367573
Suomi 100
1 43804U 18099AY  25231.61402996  .00008005  00000-0  37910-3 0  9992
2 43804  97.4680 289.1840 0010565 257.0056 102.9999 15.19551421367480
ISAT
1 43879U 18111D   25231.34076751  .00018800  00000-0  60234-3 0  9994
2 43879  97.5890 147.3971 0005923 321.4418  38.6399 15.32404182364523
UWE-4
1 43880U 18111E   25231.32313473  .00014072  00000-0  52037-3 0  9998
2 43880  97.5835 145.3338 0009864 332.5142  27.5574 15.27774570364420
Sparrow
1 43881U 18111F   25231.32767479  .00020860  00000-0  63922-3 0  9995
2 43881  97.6047 150.5491 0006034  13.7299 346.4106 15.33803812364627
Prox-1
1 44339U 19036A   25231.31826619  .00009550  00000-0  11646-2 0  9990
2 44339  23.9979 316.7023 0007423 151.5707 208.5196 14.81229768328516
Taurus 1
1 44530U 19059C   25231.83683071  .00006008  00000-0  10906-2 0  9991
2 44530  98.6134  14.6755 0009793 169.8539 190.2863 14.66578280314381
Duchifat 3
1 44854U 19089C   25231.44486486  .00049272  00000-0  76927-3 0  9997
2 44854  36.9397 262.6898 0006092 180.0800 179.9958 15.52782318314018
TO-108
1 44881U 19093C   25231.81771448  .00000766  00000-0  94319-4 0  9999
2 44881  97.7886 305.9693 0013726   3.9714 356.1608 14.85726599306655
FloripaSat 1
1 44885U 19093G   25231.78292770  .00004811  00000-0  40045-3 0  9996
2 44885  97.8138 319.5532 0008577 330.6663  29.4077 14.99122110307413
RS-44
1 44909U 19096E   25231.38620841  .00000025  00000-0  47662-4 0  9992
2 44909  82.5241 180.2402 0218266 129.8075 232.2467 12.79742637263740
UPMSat 2
1 46276U 20061E   25231.20273149  .00117148  00000-0  61904-3 0  9990
2 46276  97.2370 308.4649 0001942 207.7604 152.3560 15.80280332276572
SALSAT
1 46495U 20068K   25231.50026264  .00006566  00000-0  27699-3 0  9991
2 46495  97.8661 212.8717 0009085 276.3536  83.6665 15.23634240269325
